Regional Weather Roundup
Issued by NWS Wakefield, VA

Home | Current Version | Previous Version | Text Only | Print | Product List | Glossary Off
Versions: 1 2 3 4 5 6 7 8 9 10 11 12 13 14 15 16 17 18 19 20 21 22 23 24 25 26 27 28 29 30 31 32 33 34 35 36 37 38 39 40 41 42 43 44 45 46 47 48 49 50

000
ASUS41 KAKQ 250310
RWRAKQ

REGIONAL WEATHER ROUNDUP
NATIONAL WEATHER SERVICE WAKEFIELD VA
1000 PM EST SAT JAN 24 2015

Note: "fair" indicates few or no clouds below 12,000 feet with no
significant weather and/or obstructions to visibility. * = Denotes
station may not report precipitation (e.g., rain,snow,etc.),
thunder or fog.

VAZ042-051-052>054-056-250400-
NORTHERN VIRGINIA

CITY           SKY/WX    TMP DP  RH WIND       PRES   REMARKS
WASH NATIONAL  PTCLDY    40  24  53 W7        29.64R
DULLES         MOCLDY    36  26  67 NW18      29.63R
FORT BELVOIR   CLEAR     38  25  59 W7        29.65R
QUANTICO       PTCLDY    37  25  61 NW3       29.67R
FREDERICKSBRG* CLEAR     32  32 100 W6        29.65R
STAFFORD*      PTCLDY    31  25  76 CALM      29.70R
WARRENTON      MOCLDY    37  30  75 CALM      29.65R
CULPEPER*      MOCLDY    41  27  56 NW5       29.66R
MANASSAS*      MOCLDY    36  27  69 W6        29.66R
LEESBURG*      CLOUDY    37  30  75 NW12G21   29.65R
WINCHESTER     CLOUDY    37  23  56 W16G22    29.64R
FRONT ROYAL*   CLOUDY    37  27  65 W14G25    29.63R
LURAY*         CLOUDY    37  28  70 SW7       29.66R
$$

VAZ048-049-060>072-079>083-250400-
CENTRAL AND SOUTH CENTRAL VIRGINIA

CITY           SKY/WX    TMP DP  RH WIND       PRES   REMARKS
RICHMOND       CLEAR     39  27  62 W10       29.68R
CHESTERFIELD*  FAIR      37  18  44 W6        29.70R
PETERSBURG*    CLEAR     37  28  72 SW6       29.71R
HANOVER        CLEAR     37  27  67 W8        29.69R
TAPPAHANNOCK*  CLEAR     37  30  75 SW6       29.67R
QUINTON*       FAIR      36  29  75 W5        29.68R
CHARLOTTSVILLE MOCLDY    36  23  59 VRB7      29.66R
GORDONSVILLE*  FAIR      37  24  57 SW6       29.67R
ORANGE*        PTCLDY    37  27  65 SW7       29.68R
LOUISA*        PTCLDY    37  25  60 W5        29.66R
BUMPASS*       FAIR      36  24  64 W5        29.66R
FARMVILLE*     CLEAR     37  25  61 SW5       29.70R
CREWE*         FAIR      37  24  60 CALM      29.70R
FORT PICKETT*  FAIR      35  26  71 W9        29.71R
CHASE CITY*    FAIR      37  28  70 W3        29.74R
CLARKSVILLE*   FAIR      36  27  69 W7        29.74R
SOUTH HILL*    CLEAR     36  25  65 W9        29.79R
LAWRENCEVILLE* FAIR      37  27  67 W3        29.72R
EMPORIA*       CLEAR     36  28  75 SW8       29.74R
$$

VAZ088>098-250400-
SOUTHEAST VIRGINIA

CITY           SKY/WX    TMP DP  RH WIND       PRES   REMARKS
NORFOLK        CLEAR     41  31  67 W7        29.68R
VIRGINIA BEACH CLEAR     40  35  83 W12       29.68R
NORFOLK NAVAL  CLEAR     43  31  62 W10G21    29.69R
WEST POINT*    CLEAR     39  32  77 W6        29.69R
SALUDA*        FAIR      37  34  89 W6        29.66R
NEWPORT NEWS   CLEAR     42  31  64 W12       29.68R
LANGLEY AFB    CLEAR     40  31  72 W14       29.68R
FORT EUSTIS    CLEAR     39  34  81 NW8       29.67R
WILLIAMSBURG*    N/A    N/A N/A N/A MISG      29.68R
HR EXEC AP*    FAIR      37  34  87 W7        29.72R
FRANKLIN*      CLEAR     37  31  79 W7        29.72R
WAKEFIELD      CLEAR     38  28  67 W9        29.71R
$$

VAZ020-022-025-037-045-250400-
WEST CENTRAL AND SOUTHWEST VIRGINIA

CITY           SKY/WX    TMP DP  RH WIND       PRES   REMARKS
STAUNTON*      CLOUDY    35  24  64 SW5G17    29.69R
WAYNESBORO*    CLOUDY    33  24  69 CALM      29.67R
HOT SPRINGS VA FOG       26  26 100 W16G22    29.56R VSB 1/4 WCI  13
LYNCHBURG      CLOUDY    35  25  66 VRB3      29.73R
DANVILLE       CLEAR     33  24  69 SW7       29.77R
SOUTH BOSTON*  FAIR      38  24  55 W9G16     29.76R
MARTINSVILLE   MOCLDY    37  26  64 W6        29.79R
ROANOKE        CLOUDY    37  25  61 W18G30    29.76R
BLACKSBURG     CLOUDY    32  26  77 W14G23    29.76R WCI  22
DUBLIN*        CLOUDY    35  30  82 NW18G24   29.77R WCI  24
MARION*        CLOUDY    32  28  84 W26G33    29.77R WCI  19
HILLSVILLE*    CLOUDY    32  26  78 W22G29    29.73R WCI  19
RICHLANDS*     CLOUDY    32  25  74 W9G16     29.81R
WISE*          CLOUDY    34  28  80 W12G20    29.84R
ABINGDON*      CLOUDY    34  30  85 W7        29.85R
$$

MDZ021>025-VAZ099-100-250400-
SOUTHERN MARYLAND AND THE DELMARVA PENINSULA

CITY           SKY/WX    TMP DP  RH WIND       PRES   REMARKS
PATUXENT RIVER CLEAR     37  27  67 W10       29.64R
BAY BRIDGE APT   N/A     36  28  75 W7G16     29.61S
LEONARDTOWN    CLEAR     36  28  75 W5        29.65R
DOVER          CLEAR     36  28  73 W12       29.58R
GEORGETOWN     PTCLDY    36  28  73 W7        29.61R
EASTON         CLEAR     38  29  70 NW8       29.65
CAMBRIDGE      CLEAR     41  28  60 W8G20     29.62R
SALISBURY      CLEAR     40  29  64 W12       29.62R
OCEAN CITY     CLEAR     36  30  79 W8        29.61R
WALLOPS ISLAND PTCLDY    37  36  96 W9        29.64R
ACCOMACK*      CLEAR     37  36  93 W9        29.65R
$$

NCZ012>017-030>032-250400-
NORTH CENTRAL AND EASTERN NORTH CAROLINA

CITY           SKY/WX    TMP DP  RH WIND       PRES   REMARKS
ROANOKE RAPIDS FAIR      39  28  65 W6        29.75R
RALEIGH        CLEAR     39  25  57 W5        29.78R
ELIZABETH CITY CLEAR     40  36  86 W10       29.72R
AHOSKIE*       CLEAR     35  31  83 CALM      29.75R
EDENTON*       CLEAR     41  34  74 W7        29.74R
CURRITUCK*     CLEAR     41  37  85 W10       29.71R
KILL DEVIL HLS CLEAR     42  41  96 W9G16     29.71R
MANTEO         CLEAR     41  39  93 W9        29.73R
CAPE HATTERAS  CLEAR     45  41  86 W13G20    29.75R
TARBORO*       FAIR      39  29  67 W5        29.78R
GOLDSBORO      CLEAR     39  39  98 SW5       29.78R
WASHINGTON     CLEAR     39  36  89 W3        29.77R
GREENVILLE     CLEAR     41  34  75 W3        29.80R
NEW BERN       CLEAR     43  38  82 SW6       29.80R
WILMINGTON     CLEAR     43  40  89 W9        29.83R
$$

VAZ048-250400-
ELSEWHERE

CITY           SKY/WX    TMP DP  RH WIND       PRES   REMARKS
HARRISBURG PA  CLOUDY    34  26  72 W12       29.58R
BALTIMORE      PTCLDY    36  25  64 W13G18    29.61R
ANNAPOLIS      CLEAR     37  25  61 W13G21    29.62R
ANDREWS AFB    CLEAR     37  25  64 W10       29.63R
PHILADELPHIA   PTCLDY    37  25  61 W17G28    29.55R
HENDERSON NC   CLEAR     36  23  60 W5        29.76R
GREENSBORO     CLEAR     36  23  59 W10       29.78R
ROCKY MOUNT    CLEAR     39  30  70 W5        29.77R
$$

VAZ100-250400-
MARINE

STATION/POSITION TIME  TEMP    WIND        PRES    WAVE   SWELL
                       AIR SEA DIR/SP/G            HT/PER HT/PER
                 (UTC) (F)     (DEG/KT/KT) (MB)    (FT/S) (FT/S)
BRANDYWINE LGT   0300   38 37  280/ 19/ 21 1001.1R
CAPE MAY NJ      0300   37 39  280/ 15/ 18 1000.6R
LEWES DE         0300   38 38  280/ 15/ 19 1001.3R
15NM E FENWICK I 0300   40 42              1000.7R   6/ 7
OCEAN-CITY-INLET 0300   38 39  300/ 10/ 13 1001.6F
WACHAPREAGUE VA  0300   38 41  280/  3/  6 1004.0R
THOMAS POINT MD  0300   38 37  290/ 17/ 19 1003.7R
GOOSES REEF MD   0300   38 37  VRB 12/ 16  1002.5R   1/ 2
COVE POINT MD    0300   38     320/ 10/ 13 1003.2R
SOLOMONS ISLAND  0300      38                N/A
BISHOPS HEAD MD  0300   38 37  290/  6/  7 1002.9R
PINEY POINT MD   0300          310/  8/  8   N/A
POTOMAC MD       0300   39 38  280/ 12/ 14 1002.8R   2/ 2
CAMBRIDGE MD     0300   39 36  290/ 13/ 18 1003.0R
LEWISETTA VA     0300   38 38  260/  4/  5 1003.7R
RAPPAHANNOCK LGT 0300          250/ 14/ 15 1004.5R
STINGRAY PT      0300   40 39  270/ 12/ 16 1004.9R   1/ 2
YORK RVR RNG VA  0300   41     280/ 18/ 22 1003.5R
JAMESTOWN VA     0300   41 41  290/ 10/ 14   N/A     0
DOMINION TERM VA 0300   41     280/ 14/ 16 1004.9R
KIPTOPEKE VA     0300      46  270/ 15/ 18   N/A
CHES BAY BRIDGE  0300   42 41  240/ 20/ 23 1004.1F
CAPE HENRY VA    0300   41     250/ 12/ 18 1003.5R
CHESAPEAKE LGHT  0200   42     250/ 20/ 22 1004.2R
WILLOUBY STN VA  0300   41     270/ 19/ 22 1004.9R
S CRANEY ISL VA  0300          240/ 11/ 16 1005.0S
CAPE HENRY BUOY  0200      45                N/A     4/10   2/11
1ST LANDING BUOY 0300   42 41  260/ 17/ 21 1004.4R   2/ 4
CAPE CHARLES BUO 0300      43                N/A     4/10   3/10
OFFSHORE WE BUOY 0300      47                N/A     5/11   5/11
64NM E OF VA BCH 0300   46 53  270/ 21/ 25 1004.0R   8/ 6   3/11
DUCK PIER NC     0300   44 44  250/ 14/ 18 1005.5R
44100 DUCK FRF   0300      45                N/A     5/11   3/11
44056 DUCK FRF   0300      43                N/A     4/11   2/11
OREGON INLET NC  0300   43 48  250/ 13/ 17 1006.3F
HATTERAS NC      0300   47 57  270/ 15/ 19 1007.7R



USA.gov is the U.S. government's official web portal to all federal, state and local government web resources and services.